GW2742 Weather Reports


time (UTC)temp
C
wind
direction
speed
KPH
gust
KPH
rain 1hr
cm
rain 24hr
cm
rain mn
cm
humidity
%
barometer
mb
20260902211026 29 257 3.2 8.0 0.00 0.00 0.00 28 1007.5
20260902210526 29 330 3.2 8.0 0.00 0.00 0.00 28 1007.4
20260902210047 29 83 1.6 8.0 0.00 0.00 0.00 30 1007.6
20260902205525 29 108 3.2 9.7 0.00 0.00 0.00 30 1007.8
20260902205026 29 164 3.2 9.7 0.00 0.00 0.00 28 1007.8
20260902204545 29 131 0.0 6.4 0.00 0.00 0.00 32 1007.9
20260902204026 29 0 0.0 6.4 0.00 0.00 0.00 28 1008.0
20260902203525 29 128 1.6 6.4 0.00 0.00 0.00 30 1008.0
20260902203046 29 27 3.2 8.0 0.00 0.00 0.00 27 1008.1
20260902202527 28 0 0.0 11.3 0.00 0.00 0.00 28 1008.4
20260902202025 28 134 3.2 11.3 0.00 0.00 0.00 29 1008.6
20260902201556 28 196 3.2 11.3 0.00 0.00 0.00 30 1008.6
20260902201024 28 210 4.8 11.3 0.00 0.00 0.00 30 1008.6
20260902200526 28 154 6.4 9.7 0.00 0.00 0.00 31 1008.8
20260902200049 28 103 1.6 12.9 0.00 0.00 0.00 32 1008.7
20260902195527 28 212 3.2 12.9 0.00 0.00 0.00 30 1008.8
20260902195027 28 155 8.0 12.9 0.00 0.00 0.00 30 1008.9
20260902194548 27 188 6.4 17.7 0.00 0.00 0.00 31 1008.9
20260902194027 27 195 4.8 20.9 0.00 0.00 0.00 33 1008.9
20260902193525 27 85 9.7 20.9 0.00 0.00 0.00 31 1008.9
20260902193046 28 139 4.8 16.1 0.00 0.00 0.00 33 1009.1
20260902192525 28 211 3.2 19.3 0.00 0.00 0.00 37 1009.1
20260902192030 28 173 6.4 24.1 0.00 0.00 0.00 30 1009.2
20260902191556 28 136 9.7 24.1 0.00 0.00 0.00 30 1009.3
20260902191029 28 129 8.0 20.9 0.00 0.00 0.00 32 1009.2
20260902190527 28 198 9.7 20.9 0.00 0.00 0.00 33 1009.4
20260902190053 28 240 8.0 22.5 0.00 0.00 0.00 34 1009.3
20260902185526 27 190 8.0 22.5 0.00 0.00 0.00 39 1009.5
20260902185028 27 174 8.0 22.5 0.00 0.00 0.00 32 1009.6
20260902184608 27 97 8.0 17.7 0.00 0.00 0.00 35 1009.7
20260902184028 27 120 8.0 17.7 0.00 0.00 0.00 35 1009.8
20260902183526 27 120 8.0 19.3 0.00 0.00 0.00 34 1010.0
20260902183044 27 146 8.0 19.3 0.00 0.00 0.00 36 1010.0
20260902182525 27 152 8.0 22.5 0.00 0.00 0.00 35 1010.0
20260902182026 27 113 4.8 22.5 0.00 0.00 0.00 38 1010.1
20260902181546 27 76 6.4 16.1 0.00 0.00 0.00 37 1010.1
20260902181025 26 124 6.4 16.1 0.00 0.00 0.00 36 1010.3
20260902180527 26 118 6.4 14.5 0.00 0.00 0.00 38 1010.3
20260902180043 26 60 8.0 16.1 0.00 0.00 0.00 34 1010.4
20260902175525 26 106 8.0 16.1 0.00 0.00 0.00 37 1010.6
20260902175028 26 101 8.0 17.7 0.00 0.00 0.00 36 1010.8
20260902174554 26 75 8.0 17.7 0.00 0.00 0.00 37 1010.7
20260902174027 26 106 4.8 16.1 0.00 0.00 0.00 41 1010.9
20260902173527 26 127 4.8 16.1 0.00 0.00 0.00 37 1011.0
20260902173045 26 108 4.8 16.1 0.00 0.00 0.00 42 1011.0
20260902172526 26 176 6.4 14.5 0.00 0.00 0.00 40 1011.0
20260902172026 26 112 6.4 11.3 0.00 0.00 0.00 39 1011.2
20260902171559 26 87 4.8 12.9 0.00 0.00 0.00 39 1011.1
20260902171025 25 144 4.8 12.9 0.00 0.00 0.00 40 1011.2
20260902170527 25 101 4.8 14.5 0.00 0.00 0.00 39 1011.2
20260902170043 25 139 4.8 14.5 0.00 0.00 0.00 40 1011.4
20260902165525 25 100 4.8 14.5 0.00 0.00 0.00 40 1011.3
20260902165026 25 150 6.4 14.5 0.00 0.00 0.00 40 1011.4
20260902164554 25 103 6.4 14.5 0.00 0.00 0.00 42 1011.4
20260902164024 25 127 6.4 14.5 0.00 0.00 0.00 41 1011.5
20260902163525 24 165 6.4 14.5 0.00 0.00 0.00 44 1011.4
20260902163047 24 105 8.0 14.5 0.00 0.00 0.00 42 1011.5
20260902162530 23 105 4.8 17.7 0.00 0.00 0.00 43 1011.4
20260902162026 23 148 8.0 17.7 0.00 0.00 0.00 44 1011.5
20260902161544 23 122 6.4 14.5 0.00 0.00 0.00 44 1011.6
20260902161029 23 139 4.8 11.3 0.00 0.00 0.00 46 1011.7
20260902160527 22 96 4.8 9.7 0.00 0.00 0.00 48 1011.9
20260902160050 22 109 1.6 16.1 0.00 0.00 0.00 48 1011.9
20260902155527 22 90 4.8 16.1 0.00 0.00 0.00 46 1011.9
20260902155030 22 68 6.4 16.1 0.00 0.00 0.00 44 1011.9
20260902154547 22 122 4.8 12.9 0.00 0.00 0.00 48 1011.8
20260902154025 22 77 6.4 12.9 0.00 0.00 0.00 48 1011.9
20260902153528 21 46 1.6 8.0 0.00 0.00 0.00 53 1012.0
20260902153044 21 105 1.6 8.0 0.00 0.00 0.00 52 1012.0
20260902152525 21 106 1.6 4.8 0.00 0.00 0.00 55 1012.1
20260902152025 20 61 1.6 4.8 0.00 0.00 0.00 56 1012.2
20260902151552 20 0 0.0 4.8 0.00 0.00 0.00 56 1012.4
20260902151026 19 324 0.0 4.8 0.00 0.00 0.00 58 1012.4
20260902150526 18 323 1.6 4.8 0.00 0.00 0.00 58 1012.4
20260902150044 18 1 0.0 4.8 0.00 0.00 0.00 58 1012.4
20260902145525 18 332 1.6 4.8 0.00 0.00 0.00 60 1012.6
20260902145026 18 0 0.0 4.8 0.00 0.00 0.00 60 1012.6
20260902144554 17 9 1.6 4.8 0.00 0.00 0.00 60 1012.6
20260902144024 17 0 0.0 6.4 0.00 0.00 0.00 61 1012.7
20260902143525 17 303 1.6 6.4 0.00 0.00 0.00 60 1012.7
20260902143044 17 100 3.2 8.0 0.00 0.00 0.00 62 1012.5
20260902142526 16 0 0.0 8.0 0.00 0.00 0.00 65 1012.5
20260902142025 16 46 3.2 8.0 0.00 0.00 0.00 64 1012.4
20260902141549 15 39 3.2 6.4 0.00 0.00 0.00 65 1012.2
20260902141025 15 40 1.6 4.8 0.00 0.00 0.00 67 1012.5
20260902140524 15 15 1.6 4.8 0.00 0.00 0.00 67 1012.6
20260902140043 14 15 0.0 6.4 0.00 0.00 0.00 68 1012.6
20260902135527 14 11 1.6 6.4 0.00 0.00 0.00 66 1012.5
20260902135024 14 80 1.6 6.4 0.00 0.00 0.00 67 1012.7
20260902134545 14 77 1.6 6.4 0.00 0.00 0.00 69 1012.8
20260902134025 14 49 1.6 6.4 0.00 0.00 0.00 69 1012.8
20260902133529 14 205 0.0 6.4 0.00 0.00 0.00 69 1012.7
20260902133056 14 53 3.2 6.4 0.00 0.00 0.00 68 1012.4
20260902132528 14 53 0.0 8.0 0.00 0.00 0.00 67 1012.5
20260902132028 13 25 3.2 9.7 0.00 0.00 0.00 69 1012.6
20260902131555 13 1 3.2 9.7 0.00 0.00 0.00 70 1012.5
20260902131026 12 44 4.8 9.7 0.00 0.00 0.00 71 1012.7
20260902130525 12 0 0.0 4.8 0.00 0.00 0.00 76 1012.8
20260902130042 12 0 1.6 4.8 0.00 0.00 0.00 75 1012.7
20260902125527 12 0 1.6 4.8 0.00 0.00 0.00 75 1012.9
20260902125026 12 322 1.6 6.4 0.00 0.00 0.00 76 1012.8
20260902124547 12 335 3.2 6.4 0.00 0.00 0.00 75 1012.6
20260902124027 12 269 1.6 4.8 0.00 0.00 0.00 74 1012.5
20260902123524 12 0 1.6 4.8 0.00 0.00 0.00 73 1012.5
20260902123045 13 271 1.6 4.8 0.00 0.00 0.00 73 1012.5
20260902122532 13 0 0.0 1.6 0.00 0.00 0.00 72 1012.4
20260902122025 12 0 0.0 4.8 0.00 0.00 0.00 70 1012.4
20260902121548 12 0 0.0 4.8 0.00 0.00 0.00 72 1012.5
20260902121026 12 129 0.0 3.2 0.00 0.00 0.00 73 1012.5
20260902120526 12 0 0.0 0.0 0.00 0.00 0.00 75 1012.7
20260902120043 12 0 0.0 0.0 0.00 0.00 0.00 75 1012.7
20260902115528 12 0 0.0 0.0 0.00 0.00 0.00 74 1012.7
20260902115029 12 0 0.0 0.0 0.00 0.00 0.00 74 1012.5
20260902114550 12 0 0.0 0.0 0.00 0.00 0.00 75 1012.5
20260902114026 12 0 0.0 0.0 0.00 0.00 0.00 75 1012.5
20260902113526 12 0 0.0 0.0 0.00 0.00 0.00 75 1012.5
20260902113053 12 0 0.0 1.6 0.00 0.00 0.00 75 1012.4
20260902112525 12 0 0.0 4.8 0.00 0.00 0.00 75 1012.4
20260902112026 12 0 0.0 4.8 0.00 0.00 0.00 75 1012.4
20260902111544 12 260 0.0 3.2 0.00 0.00 0.00 74 1012.4
20260902111026 12 0 0.0 0.0 0.00 0.00 0.00 73 1012.3
20260902110524 12 0 0.0 3.2 0.00 0.00 0.00 73 1012.4
20260902110045 12 0 0.0 4.8 0.00 0.00 0.00 74 1012.2
20260902105525 12 0 1.6 4.8 0.00 0.00 0.00 74 1012.4
20260902105028 12 104 1.6 3.2 0.00 0.00 0.00 75 1012.3
20260902104600 12 104 0.0 3.2 0.00 0.00 0.00 76 1012.2
20260902104024 12 0 0.0 3.2 0.00 0.00 0.00 76 1012.2
20260902103530 12 103 1.6 3.2 0.00 0.00 0.00 77 1012.2
20260902103042 12 0 0.0 3.2 0.00 0.00 0.00 76 1011.9
20260902102525 12 0 0.0 3.2 0.00 0.00 0.00 76 1011.9
20260902102025 12 103 1.6 3.2 0.00 0.00 0.00 76 1012.0
20260902101550 12 103 1.6 3.2 0.00 0.00 0.00 75 1012.0
20260902101025 12 105 1.6 4.8 0.00 0.00 0.00 75 1011.9
20260902100526 12 0 0.0 4.8 0.00 0.00 0.00 74 1011.9
20260902100043 12 105 1.6 4.8 0.00 0.00 0.00 75 1011.9
20260902095523 12 0 0.0 1.6 0.00 0.00 0.00 75 1011.8
20260902095025 12 0 0.0 0.0 0.00 0.00 0.00 75 1011.9
20260902094543 13 0 0.0 0.0 0.00 0.00 0.00 74 1012.0
20260902094024 13 0 0.0 1.6 0.00 0.00 0.00 73 1012.1
20260902093524 13 0 0.0 1.6 0.00 0.00 0.00 73 1012.0
20260902093048 13 0 0.0 1.6 0.00 0.00 0.00 73 1012.2
20260902092524 13 0 0.0 4.8 0.00 0.00 0.00 73 1012.2
20260902092025 13 0 0.0 4.8 0.00 0.00 0.00 73 1012.2
20260902091544 13 105 1.6 4.8 0.00 0.00 0.00 73 1012.5
20260902091024 13 0 0.0 1.6 0.00 0.00 0.00 73 1012.3
20260902090531 13 0 0.0 0.0 0.00 0.00 0.00 72 1012.2
20260902090043 13 0 0.0 3.2 0.00 0.00 0.00 72 1012.3
20260902085525 13 0 0.0 3.2 0.00 0.00 0.00 72 1012.4
20260902085024 14 323 0.0 3.2 0.00 0.00 0.00 71 1012.4
20260902084545 14 0 0.0 1.6 0.00 0.00 0.00 71 1012.5
20260902084024 14 323 0.0 3.2 0.00 0.00 0.00 71 1012.5
20260902083525 14 0 0.0 3.2 0.00 0.00 0.00 71 1012.5
20260902083112 14 323 0.0 3.2 0.00 0.00 0.00 70 1012.4
20260902082525 14 0 0.0 3.2 0.00 0.00 0.00 71 1012.4
20260902082023 14 0 0.0 3.2 0.00 0.00 0.00 71 1012.4
20260902081547 14 0 0.0 3.2 0.00 0.00 0.00 70 1012.2
20260902081025 14 0 0.0 3.2 0.00 0.00 0.00 70 1012.4
20260902080524 14 332 1.6 4.8 0.00 0.00 0.00 70 1012.2
20260902080045 14 0 0.0 6.4 0.00 0.00 0.00 71 1012.1
20260902075525 14 332 3.2 6.4 0.00 0.00 0.00 70 1012.2
20260902075026 14 1 1.6 6.4 0.00 0.00 0.00 71 1012.1
20260902074543 14 0 1.6 4.8 0.00 0.00 0.00 71 1012.2
20260902074025 15 0 0.0 4.8 0.00 0.00 0.00 70 1012.1
20260902073523 15 0 0.0 4.8 0.00 0.00 0.00 70 1012.0
20260902073054 15 12 1.6 4.8 0.00 0.00 0.00 70 1011.8
20260902072524 15 34 1.6 4.8 0.00 0.00 0.00 69 1011.9
20260902072023 15 0 0.0 4.8 0.00 0.00 0.00 69 1012.1
20260902071545 15 333 1.6 4.8 0.00 0.00 0.00 69 1012.1
20260902071026 15 168 0.0 3.2 0.00 0.00 0.00 67 1012.2
20260902070524 16 0 0.0 6.4 0.00 0.00 0.00 67 1012.5
20260902070048 16 0 0.0 6.4 0.00 0.00 0.00 67 1012.9
20260902065529 16 168 1.6 6.4 0.00 0.00 0.00 67 1012.8
20260902065023 16 338 1.6 4.8 0.00 0.00 0.00 67 1012.4
20260902064545 16 198 0.0 6.4 0.00 0.00 0.00 65 1012.5
20260902064023 16 0 1.6 9.7 0.00 0.00 0.00 66 1012.5
20260902063523 16 0 1.6 9.7 0.00 0.00 0.00 66 1012.8
20260902063046 16 186 1.6 4.8 0.00 0.00 0.00 66 1013.1
20260902062526 16 222 0.0 6.4 0.00 0.00 0.00 67 1012.8
20260902062024 16 0 1.6 6.4 0.00 0.00 0.00 68 1012.7
20260902061548 15 201 3.2 6.4 0.00 0.00 0.00 70 1012.7
20260902061024 15 230 3.2 6.4 0.00 0.00 0.00 70 1012.5
20260902060523 15 213 3.2 6.4 0.00 0.00 0.00 72 1012.5
20260902060104 15 179 3.2 8.0 0.00 0.00 0.00 72 1012.5
20260902055523 15 199 3.2 8.0 0.00 0.00 0.00 73 1012.4
20260902055025 15 188 1.6 6.4 0.00 0.00 0.00 72 1012.5
20260902054555 15 0 0.0 0.0 0.00 0.00 0.00 72 1012.4
20260902054033 15 0 0.0 0.0 0.00 0.00 0.00 71 1012.3
20260902053530 15 0 0.0 0.0 0.00 0.00 0.00 71 1012.2
20260902053057 15 0 0.0 0.0 0.00 0.00 0.00 71 1012.2
20260902052523 15 0 0.0 0.0 0.00 0.00 0.00 70 1012.3
20260902052023 16 0 0.0 0.0 0.00 0.00 0.00 69 1012.3
20260902051543 16 0 0.0 0.0 0.00 0.00 0.00 68 1012.2
20260902051025 16 0 0.0 0.0 0.00 0.00 0.00 68 1012.1
20260902050526 16 0 0.0 0.0 0.00 0.00 0.00 67 1012.1
20260902050059 16 0 0.0 0.0 0.00 0.00 0.00 67 1012.1
20260902045524 16 0 0.0 0.0 0.00 0.00 0.00 66 1012.2
20260902045024 17 0 0.0 3.2 0.00 0.00 0.00 65 1012.2
20260902044550 17 0 0.0 3.2 0.00 0.00 0.00 64 1012.2
20260902044029 17 238 1.6 3.2 0.00 0.00 0.00 63 1012.2
20260902043523 17 0 0.0 3.2 0.00 0.00 0.00 63 1012.2
20260902043053 17 0 0.0 4.8 0.00 0.00 0.00 63 1012.2
20260902042526 17 0 1.6 4.8 0.00 0.00 0.00 62 1012.2
20260902042025 17 272 1.6 4.8 0.00 0.00 0.00 61 1012.2
20260902041543 17 0 0.0 0.0 0.00 0.00 0.00 60 1012.1
20260902041025 17 0 0.0 0.0 0.00 0.00 0.00 59 1012.2
20260902040528 17 0 0.0 0.0 0.00 0.00 0.00 59 1012.3
20260902040055 18 0 0.0 0.0 0.00 0.00 0.00 60 1012.3
20260902035526 18 0 0.0 3.2 0.00 0.00 0.00 59 1012.2
20260902035029 18 0 0.0 3.2 0.00 0.00 0.00 58 1012.2
20260902034546 18 0 0.0 3.2 0.00 0.00 0.00 55 1012.1
20260902034028 18 0 0.0 3.2 0.00 0.00 0.00 57 1012.1
20260902033527 18 0 1.6 3.2 0.00 0.00 0.00 56 1012.0
20260902033046 18 241 0.0 1.6 0.00 0.00 0.00 55 1012.0
20260902032525 18 0 0.0 3.2 0.00 0.00 0.00 53 1011.9
20260902032027 19 0 0.0 3.2 0.00 0.00 0.00 52 1011.9
20260902031547 19 241 0.0 1.6 0.00 0.00 0.00 50 1011.7
20260902031029 20 0 0.0 0.0 0.00 0.00 0.00 49 1011.7
20260902030525 20 0 0.0 0.0 0.00 0.00 0.00 48 1011.7
20260902030053 20 0 0.0 0.0 0.00 0.00 0.00 48 1011.7
20260902025527 20 0 0.0 0.0 0.00 0.00 0.00 47 1011.5
20260902025027 20 0 0.0 3.2 0.00 0.00 0.00 47 1011.5
20260902024546 21 0 0.0 3.2 0.00 0.00 0.00 46 1011.5
20260902024026 21 241 0.0 3.2 0.00 0.00 0.00 47 1011.5
20260902023530 21 0 0.0 0.0 0.00 0.00 0.00 45 1011.6
20260902023048 21 0 0.0 0.0 0.00 0.00 0.00 45 1011.5
20260902022526 21 0 0.0 0.0 0.00 0.00 0.00 46 1011.5
20260902022033 21 0 0.0 0.0 0.00 0.00 0.00 46 1011.5
20260902021544 21 0 0.0 0.0 0.00 0.00 0.00 49 1011.5
20260902021025 21 0 0.0 0.0 0.00 0.00 0.00 46 1011.3
20260902020526 22 0 0.0 0.0 0.00 0.00 0.00 47 1011.3
20260902020043 22 0 0.0 0.0 0.00 0.00 0.00 46 1011.3
20260902015527 22 0 0.0 0.0 0.00 0.00 0.00 45 1011.3
20260902015026 23 0 0.0 0.0 0.00 0.00 0.00 45 1011.3
20260902014547 23 0 0.0 0.0 0.00 0.00 0.00 44 1011.3
20260902014031 23 0 0.0 0.0 0.00 0.00 0.00 43 1011.2
20260902013527 24 0 0.0 0.0 0.00 0.00 0.00 42 1011.1
20260902013048 25 0 0.0 0.0 0.00 0.00 0.00 41 1011.2
20260902012530 25 0 0.0 0.0 0.00 0.00 0.00 41 1011.2
20260902012023 25 0 0.0 0.0 0.00 0.00 0.00 41 1011.3
20260902011557 25 0 0.0 0.0 0.00 0.00 0.00 41 1011.3
20260902011024 26 0 0.0 0.0 0.00 0.00 0.00 41 1011.3
20260902010524 26 0 0.0 0.0 0.00 0.00 0.00 40 1011.3
20260902010043 26 0 0.0 1.6 0.00 0.00 0.00 40 1011.3
20260902005527 25 0 0.0 1.6 0.00 0.00 0.00 42 1011.3
20260902005025 25 0 0.0 3.2 0.00 0.00 0.00 44 1011.4
20260902004547 25 0 0.0 3.2 0.00 0.00 0.00 43 1011.4
20260902004032 25 0 0.0 4.8 0.00 0.00 0.00 42 1011.3
20260902003523 25 0 1.6 6.4 0.00 0.00 0.00 42 1011.3
20260902003044 25 238 1.6 6.4 0.00 0.00 0.00 42 1011.3
20260902002523 25 0 1.6 3.2 0.00 0.00 0.00 41 1011.2
20260902002023 25 0 0.0 4.8 0.00 0.00 0.00 43 1011.3
20260902001549 25 0 0.0 6.4 0.00 0.00 0.00 45 1011.4
20260902001025 25 0 0.0 6.4 0.00 0.00 0.00 44 1011.4
20260902000525 25 262 3.2 9.7 0.00 0.00 0.00 40 1011.5
20260902000044 25 354 1.6 9.7 0.00 0.00 0.00 41 1011.4
20260901235527 26 269 1.6 12.9 0.00 0.00 0.00 42 1011.4
20260901235025 26 323 3.2 12.9 0.00 0.00 0.00 39 1011.5
20260901234548 26 266 4.8 12.9 0.00 0.00 0.00 40 1011.4
20260901234024 26 294 1.6 6.4 0.00 0.00 0.00 37 1011.6
20260901233528 26 252 3.2 8.0 0.00 0.00 0.00 39 1011.6
20260901233050 26 244 3.2 8.0 0.00 0.00 0.00 38 1011.6
20260901232524 26 198 1.6 9.7 0.00 0.00 0.00 36 1011.6
20260901232024 26 233 1.6 11.3 0.00 0.00 0.00 37 1011.7
20260901231607 26 230 3.2 11.3 0.00 0.00 0.00 35 1011.6
20260901231025 26 226 3.2 11.3 0.00 0.00 0.00 34 1011.6
20260901230526 26 193 1.6 6.4 0.00 0.00 0.00 35 1011.7
20260901230056 26 227 1.6 6.4 0.00 0.00 0.00 35 1011.8
20260901225524 26 228 0.0 6.4 0.00 0.00 0.00 37 1011.8
20260901225024 27 225 1.6 9.7 0.00 0.00 0.00 33 1011.6
20260901224546 27 176 4.8 9.7 0.00 0.00 0.00 34 1011.7
20260901224024 27 233 3.2 8.0 0.00 0.00 0.00 38 1011.6
20260901223524 27 220 3.2 8.0 0.00 0.00 0.00 33 1011.6
20260901223047 27 187 1.6 12.9 0.00 0.00 0.00 35 1011.6
20260901222525 27 235 6.4 12.9 0.00 0.00 0.00 31 1011.6
20260901222024 27 213 3.2 12.9 0.00 0.00 0.00 34 1011.6
20260901221608 28 233 3.2 12.9 0.00 0.00 0.00 32 1011.6
20260901221028 28 185 1.6 11.3 0.00 0.00 0.00 31 1011.6
20260901220528 28 173 4.8 11.3 0.00 0.00 0.00 29 1011.6
20260901220115 28 0 1.6 9.7 0.00 0.00 0.00 30 1011.6
20260901215527 28 204 4.8 9.7 0.00 0.00 0.00 30 1011.7
20260901215025 28 0 0.0 11.3 0.00 0.00 0.00 28 1011.7
20260901214550 28 218 1.6 11.3 0.00 0.00 0.00 29 1011.8
20260901214028 28 186 3.2 9.7 0.00 0.00 0.00 33 1011.9
20260901213525 28 163 1.6 4.8 0.00 0.00 0.00 35 1011.9
20260901213105 28 0 1.6 6.4 0.00 0.00 0.00 37 1011.9
20260901212527 28 0 1.6 6.4 0.00 0.00 0.00 35 1012.1
20260901212029 28 0 1.6 9.7 0.00 0.00 0.00 32 1012.0
20260901211546 28 0 4.8 9.7 0.00 0.00 0.00 31 1012.0